Regional Weather Roundup
Issued by NWS

Home | Current Version | Previous Version | Graphics & Text | Print | Product List | Glossary On
Versions: 1 2 3 4 5 6 7 8 9 10 11 12 13 14 15 16 17 18 19 20 21 22 23 24 25 26 27 28 29 30 31 32 33 34 35 36 37 38 39 40 41 42 43 44 45 46 47 48 49 50
000
ASUS43 KMPX 270410
RWRMN
WEATHER ROUNDUP FOR MINNESOTA
NATIONAL WEATHER SERVICE TWIN CITIES/CHANHASSEN MN
1100 PM CDT THU MAR 26 2015


NOTE: "FAIR" INDICATES FEW OR NO CLOUDS BELOW 12,000 FEET WITH NO
SIGNIFICANT WEATHER AND/OR OBSTRUCTIONS TO VISIBILITY. N/A MEANS
CURRENT SKY AND/OR WEATHER CONDITIONS ARE NOT AVAILABLE.

MNZ060>063-068>070-270500-
   Twin Cities Metro

CITY           SKY/WX    TMP DP  RH WIND       PRES   REMARKS
TWIN CITIES    CLEAR     27   7  42 N8        30.20R WCI  19
ST PAUL        CLEAR     26   7  44 N7        30.22R WCI  18
CRYSTAL        CLEAR     27   9  46 N6        30.20R WCI  20
BLAINE         CLEAR     25  10  54 N5        30.20R WCI  19
LAKEVILLE      CLEAR     25   9  50 N6        30.19R WCI  18
EDEN PRAIRIE   CLEAR     27   9  46 N6        30.19R WCI  20
SOUTH ST PAUL  CLEAR     28   8  42 N8        30.20R WCI  20
LAKE ELMO      FAIR      27  10  50 N5        30.20R WCI  21
$$
MNZ001>005-007-008-013>017-022>024-027-028-270500-
   Northwest Minnesota

CITY           SKY/WX    TMP DP  RH WIND       PRES   REMARKS
BEMIDJI        CLEAR     15   1  53 CALM      30.24S
HALLOCK        CLEAR     19   9  63 NE6       30.31R WCI  11
ROSEAU         CLEAR     19  10  68 N5        30.29R WCI  13
WARROAD        CLEAR     19   9  63 N7        30.28S WCI  10
THIEF RVR FALL CLEAR     21   7  53 N8        30.29R WCI  12
CROOKSTON      CLEAR     21  12  68 NE3       30.31S
FOSSTON        CLEAR     16  10  79 N8        30.27S WCI   5
DETROIT LAKES  CLEAR     21  14  73 N5        30.26S WCI  15
MOORHEAD       CLEAR     18   9  68 N6        30.30S WCI   9
PARK RAPIDS    CLEAR     18   1  47 N6        30.23R WCI  10
MAHNOMEN       FAIR      19  12  76 N5        30.26S WCI  12
$$
MNZ006-009>011-018-025>026-270500-
   North Central Minnesota

CITY           SKY/WX    TMP DP  RH WIND       PRES   REMARKS
BAUDETTE       CLEAR     17   5  59 N6        30.26S WCI   9
FLAG ISLAND    CLEAR     18   7  62 CALM      30.27S
INTL FALLS     CLEAR     17   1  49 N3        30.25R
WASKISH        FAIR      16   5  62 CALM      30.27R
BIG FORK       FAIR      18   1  49 CALM      30.24R
LONGVILLE      CLEAR     19   0  42 N3        30.23S
GRAND RAPIDS   CLEAR     19   0  42 N7        30.21R WCI  10
CRANE LAKE     CLEAR     10   3  72 CALM      30.27R
ORR            CLEAR     12   0  57 CALM      30.21R
COOK           CLEAR     14   1  57 CALM      30.22S
WALKER         FAIR      19  -2  40 N3        30.24S
$$
MNZ012-019>021-037-270500-
   Northeast Minnesota

CITY           SKY/WX    TMP DP  RH WIND       PRES   REMARKS
DULUTH         CLEAR     20   1  43 N8        30.18R WCI  10
ELY            CLEAR     14   1  57 N3        30.21R
HIBBING        CLEAR     17  -2  43 N6        30.20S WCI   9
EVELETH        CLEAR     19   0  42 N5        30.22R WCI  13
DULUTH HARBOR  CLEAR     27   7  43 N18G24    30.24R WCI  13
TWO HARBORS    CLEAR     21   3  45 N5        30.19S WCI  15
SILVER BAY     CLEAR     18   1  49 CALM      30.20R
GRAND MARAIS     N/A     18   3  52 N5        30.23S WCI  11
G MARAIS ARPRT CLEAR     10   0  61 NW9       30.14S WCI  -2
$$
MNZ029>031-032-039>041-046>048-054>057-064-270500-
   West Central Minnesota

CITY           SKY/WX    TMP DP  RH WIND       PRES   REMARKS
FERGUS FALLS   FAIR      18   9  68 N7        30.30S WCI   8
WHEATON        CLEAR     19  10  68 NW6       30.30S WCI  11
MORRIS         CLEAR     25  14  63 N10       30.25S WCI  15
ALEXANDRIA     CLEAR     23  11  60 N10       30.23S WCI  12
ELBOW LAKE     FAIR      21  12  68 N7        30.26R WCI  12
WADENA         CLEAR     18  10  73 NW6       30.24R WCI   9
GLENWOOD       FAIR      23  14  68 N9        30.23S WCI  13
APPLETON       CLEAR     27  16  63 N10       30.26S WCI  17
BENSON         CLEAR     21  14  73 N8        30.25R WCI  12
ORTONVILLE     CLEAR     25  12  58 N9        30.27S WCI  15
MADISON        CLEAR     25  18  74 N8        30.27S WCI  16
WILLMAR        FAIR      25  12  58 N12       30.24R WCI  14
$$
MNZ033>034-036-042>043-049>051-058-059-270500-
   Central Minnesota

CITY           SKY/WX    TMP DP  RH WIND       PRES   REMARKS
ST CLOUD       CLEAR     25   7  46 N10       30.22R WCI  15
SAUK CENTRE    FAIR      23   4  45 N6        30.23R WCI  15
PAYNESVILLE    CLEAR     22   6  50 NW6       30.23R WCI  14
AITKIN         CLEAR     23   9  54 NW5       30.20R WCI  17
PINE RIVER     CLEAR     21   0  39 N9        30.26R WCI  11
BRAINERD       CLEAR     22   2  42 N10       30.23R WCI  11
STAPLES        CLEAR     19   0  42 N6        30.24R WCI  11
LONG PRAIRIE   FAIR      23   3  42 N8        30.23R WCI  14
LITTLE FALLS   CLEAR     25  -2  30 NW7       30.23R WCI  17
LITCHFIELD     CLEAR     27   9  46 N6        30.22R WCI  20
BUFFALO        CLEAR     27   9  46 N6        30.22R WCI  20
MAPLE LAKE     CLEAR     26  12  55 N9        30.22R WCI  16
$$
MNZ037-044-045-052-053-270500-
   East Central Minnesota

CITY           SKY/WX    TMP DP  RH WIND       PRES   REMARKS
PRINCETON      CLEAR     27  10  50 NW6       30.21R WCI  20
MORA           CLEAR     25   3  39 NE3       30.23R
CAMBRIDGE      FAIR      27  10  50 N3        30.19S
RUSH CITY      CLEAR     23   7  50 N5        30.21R WCI  17
MOOSE LAKE     CLEAR     23   1  39 CALM      30.20R
HINCKLEY       FAIR      27   3  36 N7        30.21R WCI  19
CLOQUET        CLEAR     21  -4  33 N7        30.20R WCI  13
MCGREGOR       CLEAR     23   3  42 N7        30.22R WCI  15
$$
MNZ071>073-080-081-089-090-097-098-270500-
   Southwest Minnesota

CITY           SKY/WX    TMP DP  RH WIND       PRES   REMARKS
MONTEVIDEO     CLEAR     25  18  74 N12       30.26R WCI  14
GRANITE FALLS  CLEAR     26  15  65 NW9       30.26R WCI  16
CANBY          CLEAR     23  15  71 NW6       30.27S WCI  16
MARSHALL       CLEAR     23  12  63 N10       30.25R WCI  12
REDWOOD FALLS  FAIR      27  15  61 N10       30.23R WCI  17
OLIVIA         CLEAR     25  18  74 N12       30.22R WCI  14
PIPESTONE      CLEAR     25  16  68 N5        30.22R WCI  19
WINDOM         CLEAR     23  18  80 NW8       30.20S WCI  14
WORTHINGTON    CLEAR     19  12  73 NW6       30.22S WCI  11
JACKSON        CLEAR     23  18  80 NW7       30.20S WCI  15
TRACY          CLEAR     25  17  73 N9        30.23S WCI  15
SLAYTON        CLEAR     23  15  72 CALM      30.22S
$$
MNZ065>067-074>077-082>085-091>093-270500-
   South Central Minnesota

CITY           SKY/WX    TMP DP  RH WIND       PRES   REMARKS
MANKATO        CLEAR     25  16  68 NW7       30.20R WCI  17
NEW ULM        CLEAR     27  18  69 NW14      30.20S WCI  15
ST JAMES       CLEAR     27  19  74 W8        30.21S WCI  18
FAIRMONT       CLEAR     27  18  69 NW9       30.19S WCI  17
GLENCOE        CLEAR     24  15  69 N5        30.21R WCI  18
FARIBAULT      CLEAR     25  16  68 NW5       30.18S WCI  19
OWATONNA       CLEAR     23  16  74 NW8       30.17R WCI  14
WASECA         CLEAR     25  18  74 NW8       30.19S WCI  16
ALBERT LEA     MOCLDY    27  19  74 NW10      30.17R WCI  17
$$
MNZ078>079-086>088-094>096-270500-
   Southeast Minnesota

CITY           SKY/WX    TMP DP  RH WIND       PRES   REMARKS
ROCHESTER      PTCLDY    24  15  68 NW12      30.14R WCI  13
RED WING       CLEAR     28   7  40 N5        30.18R WCI  23
STANTON        CLEAR     26  10  52 N8        30.18R WCI  17
DODGE CENTER   PTCLDY    25  16  68 NW8       30.15R WCI  16
WINONA         PTCLDY    32  18  55 N5        30.17R WCI  27
AUSTIN         PTCLDY    27  19  74 NW9G20    30.15S WCI  17
PRESTON        CLOUDY    27  19  72 NW7       30.14R WCI  19
$$
ABBREVIATIONS USED IN REMARKS
   TC - TEMPERATURES IN CELSIUS
  WCI - WIND CHILL INDEX
   HX - HEAT INDEX
  VSB - VISIBILITY
$$


USA.gov is the U.S. government's official web portal to all federal, state and local government web resources and services.